Flag for Canada Weather past 2 weeks in Colchester County, Nova Scotia, Canada

Now
41 °F

Overcast.


Feels Like: 31 °F
Forecast: 30 / 38 °F
Wind: 24 mph from Southwest

Location: Halifax International Airport

Current Time: Dec 18, 2014 at 10:38:56 AM

Latest Report: Dec 18, 2014 at 10:00 AM


Visibility: 15 mi

Pressure: 29.41 "Hg

Humidity: 93%

Dew point: 39 °F

Location of Colchester CountyLocation

Historic Weather in Colchester County — Graph

°F

Colchester County temperature yesterday

Maximum temperature yesterday: 43 °F (at 10:00 PM)
Minimum temperature yesterday: 27 °F (at 2:00 AM)
Average temperature yesterday: 31 °F

Past Weeks' High & Low Weather Summary

 TemperatureHumidityPressure
High54 °F (Dec 3, 11:00 PM)100% (Dec 3, 10:52 AM)30.78 "Hg (Dec 3, 10:52 AM)
Low10 °F (Dec 8, 5:00 AM)42% (Dec 5, 2:00 PM)29.38 "Hg (Dec 18, 7:00 AM)
Average35 °F88%30.06 "Hg
* Reported Dec 3 9:00 AM — Dec 18 9:00 AM, Colchester County, Weather by CustomWeather, © 2014

Note: Actual official high and low records may vary slightly from our data, if they occured in-between our weather recording intervals... More about our weather records

Advertising

Colchester County weather history for previous 24 hours

 ConditionsComfort  
Time TempWeatherWind HumidityBarometerVisibility
9:00 AM
Dec 18
43 °FLight rain. Fog.20 mph93%29.39 "Hg3 mi
8:00 AM43 °FDrizzle. Fog.14 mph100%29.38 "Hg1 mi
7:00 AM43 °FDrizzle. Fog.13 mph100%29.38 "Hg1 mi
6:00 AM43 °FDrizzle. Fog.15 mph93%29.39 "Hg1 mi
5:00 AM41 °FDrizzle. Fog.21 mph100%29.40 "Hg1 mi
4:00 AM45 °FDrizzle. Fog.14 mph93%29.41 "Hg0 mi
3:50 AM43 °FDrizzle. Fog.10 mph100%29.40 "Hg0 mi
3:00 AM43 °FLight rain. Fog.16 mph100%29.42 "Hg2 mi
2:00 AM41 °FRain. Fog.15 mph100%29.46 "Hg3 mi
1:00 AM41 °FHeavy rain. Fog.26 mph100%29.48 "Hg2 mi
12:04 AM41 °FHeavy rain. Fog.21 mph100%29.55 "Hg2 mi
11:00 PM
Dec 17
41 °FLight rain. Fog.23 mph100%29.63 "Hg1 mi
10:00 PM43 °FLight rain. Fog.20 mph93%29.66 "Hg2 mi
9:00 PM39 °FLight rain. Fog.17 mph100%29.72 "Hg1 mi
8:00 PM37 °FLight rain. Fog.14 mph93%29.77 "Hg1 mi
7:00 PM34 °FLight rain. Fog.13 mph100%29.80 "Hg3 mi
6:00 PM34 °FLight rain. Fog.8 mph93%29.84 "Hg3 mi
5:00 PM32 °FLight rain. Ice fog.9 mph100%29.87 "Hg6 mi
4:00 PM32 °FOvercast.5 mph93%29.91 "Hg15 mi
3:00 PM34 °FBroken clouds.5 mph87%29.93 "Hg15 mi
2:00 PM32 °FLow clouds.7 mph87%29.95 "Hg15 mi
1:00 PM32 °FLow clouds.5 mph87%29.97 "Hg15 mi
12:00 PM30 °FLow clouds.2 mph93%30.01 "Hg15 mi
11:00 AM30 °FSnow flurries. Ice fog.No wind86%30.04 "Hg3 mi
10:00 AM28 °FOvercast.3 mph86%30.06 "Hg15 mi
Weather by CustomWeather, © 2014

See weather overviewHow to use our weather pages